CW8328 Weather Reports


time (UTC)temp
C
wind
direction
speed
KPH
gust
KPH
rain 1hr
cm
rain 24hr
cm
rain mn
cm
humidity
%
barometer
mb
20260505214327 15 243 0.0 6.4 0.00 0.00 0.03 56 1011.3
20260505213836 15 221 0.0 6.4 0.00 0.00 0.03 53 1011.3
20260505213320 15 253 1.6 8.0 0.00 0.00 0.03 50 1011.2
20260505212847 16 210 0.0 0.0 0.00 0.00 0.03 50 1011.1
20260505212314 16 283 0.0 6.4 0.00 0.00 0.03 51 1011.1
20260505211841 16 266 0.0 0.0 0.00 0.00 0.03 50 1011.1
20260505211340 16 231 0.0 8.0 0.00 0.00 0.03 49 1011.2
20260505210835 16 235 3.2 8.0 0.00 0.00 0.03 50 1011.1
20260505210304 16 268 0.0 1.6 0.00 0.00 0.03 50 1011.1
20260505205807 16 264 0.0 3.2 0.00 0.00 0.03 51 1011.5
20260505205311 16 260 0.0 3.2 0.00 0.00 0.03 49 1011.5
20260505204820 16 258 1.6 8.0 0.00 0.00 0.03 50 1011.5
20260505204320 16 344 1.6 6.4 0.00 0.00 0.03 53 1011.5
20260505203815 15 309 0.0 0.0 0.00 0.00 0.03 54 1011.7
20260505203312 16 296 0.0 0.0 0.00 0.00 0.03 50 1011.9
20260505202806 16 266 0.0 1.6 0.00 0.00 0.03 51 1011.9
20260505202321 16 327 1.6 8.0 0.00 0.00 0.03 52 1011.9
20260505201805 15 38 0.0 0.0 0.00 0.00 0.03 53 1011.8
20260505201312 15 348 0.0 4.8 0.00 0.00 0.03 55 1011.8
20260505200836 15 351 0.0 4.8 0.00 0.00 0.03 57 1011.9
20260505200322 15 329 1.6 6.4 0.00 0.00 0.03 61 1012.2
20260505195805 13 306 0.0 3.2 0.00 0.00 0.03 64 1012.2
20260505195305 13 294 0.0 0.0 0.00 0.00 0.03 61 1012.0
20260505194843 13 292 0.0 0.0 0.00 0.00 0.03 62 1012.2
20260505194314 14 269 3.2 8.0 0.00 0.00 0.03 61 1012.4
20260505193801 14 250 0.0 0.0 0.00 0.00 0.03 66 1012.3
20260505193323 14 236 1.6 6.4 0.00 0.00 0.03 67 1012.3
20260505192837 13 278 0.0 0.0 0.00 0.00 0.03 68 1012.4
20260505192310 13 248 0.0 8.0 0.00 0.00 0.03 66 1012.5
20260505191845 13 242 0.0 3.2 0.00 0.00 0.03 69 1012.5
20260505191313 13 245 1.6 6.4 0.00 0.00 0.03 72 1012.5
20260505190835 12 252 0.0 0.0 0.00 0.00 0.03 78 1012.5
20260505190338 12 268 0.0 0.0 0.00 0.00 0.03 75 1012.6
20260505185803 12 245 1.6 6.4 0.00 0.00 0.03 78 1012.8
20260505185304 11 256 0.0 3.2 0.00 0.00 0.03 77 1013.0
20260505184816 12 265 0.0 0.0 0.00 0.00 0.03 77 1013.0
20260505184327 12 267 1.6 8.0 0.00 0.00 0.00 73 1013.0
20260505183844 12 264 3.2 11.3 0.00 0.00 0.00 68 1012.8
20260505183338 12 257 4.8 9.7 0.00 0.00 0.00 67 1012.9
20260505182843 13 256 1.6 11.3 0.00 0.00 0.00 61 1012.6
20260505182345 14 228 4.8 22.5 0.00 0.00 0.00 54 1012.6
20260505181839 14 241 9.7 17.7 0.00 0.00 0.00 50 1012.4
20260505181339 15 221 0.0 4.8 0.00 0.00 0.00 48 1012.4
20260505180844 15 241 4.8 16.1 0.00 0.00 0.00 48 1012.4
20260505180323 15 231 3.2 11.3 0.00 0.00 0.00 45 1012.4
20260505175824 16 233 1.6 6.4 0.00 0.00 0.00 44 1012.3
20260505175305 16 213 1.6 6.4 0.00 0.00 0.00 44 1012.4
20260505174829 17 223 1.6 8.0 0.00 0.00 0.00 43 1012.4
20260505174326 16 216 0.0 4.8 0.00 0.00 0.00 45 1012.3
20260505173829 15 256 0.0 3.2 0.00 0.00 0.00 47 1012.3
20260505173331 15 226 1.6 4.8 0.00 0.00 0.00 46 1012.3
20260505172801 15 352 0.0 0.0 0.00 0.00 0.00 46 1012.2
20260505172319 15 295 0.0 0.0 0.00 0.00 0.00 45 1012.3
20260505171818 16 304 0.0 1.6 0.00 0.00 0.00 46 1012.4
20260505171331 15 294 0.0 0.0 0.00 0.00 0.00 47 1012.4
20260505170805 15 277 0.0 3.2 0.00 0.00 0.00 48 1012.4
20260505170344 14 302 0.0 0.0 0.00 0.00 0.00 49 1012.6
20260505165805 14 260 0.0 0.0 0.00 0.00 0.00 49 1012.6
20260505165325 13 275 0.0 4.8 0.00 0.00 0.00 51 1012.5
20260505164818 13 350 0.0 0.0 0.00 0.00 0.00 51 1012.4
20260505164344 13 348 0.0 0.0 0.00 0.00 0.00 52 1012.2
20260505163835 13 324 0.0 0.0 0.00 0.00 0.00 53 1012.4
20260505163345 13 335 0.0 3.2 0.00 0.00 0.00 53 1012.5
20260505162843 12 325 0.0 4.8 0.00 0.00 0.00 56 1012.4
20260505162345 12 1 0.0 3.2 0.00 0.00 0.00 56 1012.4
20260505161832 12 1 0.0 3.2 0.00 0.00 0.00 59 1012.5
20260505161319 12 355 0.0 3.2 0.00 0.00 0.00 59 1012.7
20260505160842 12 330 0.0 0.0 0.00 0.00 0.00 61 1012.8
20260505160310 12 346 0.0 0.0 0.00 0.00 0.00 61 1012.8
20260505153346 12 343 0.0 3.2 0.00 0.00 0.00 60 1013.3
20260505152844 12 314 1.6 6.4 0.00 0.00 0.00 61 1013.4
20260505152334 12 344 0.0 9.7 0.00 0.00 0.00 61 1013.5
20260505151806 12 293 3.2 12.9 0.00 0.00 0.00 62 1013.5
20260505151302 11 324 1.6 11.3 0.00 0.00 0.00 63 1013.5
20260505150819 11 340 1.6 11.3 0.00 0.00 0.00 64 1013.5
20260505150335 11 329 0.0 0.0 0.00 0.00 0.00 66 1013.5
20260505140312 12 326 4.8 16.1 0.00 0.00 0.00 54 1013.7
20260505130302 13 246 0.0 0.0 0.00 0.00 0.00 46 1012.8
20260505124812 13 246 0.0 1.6 0.00 0.00 0.00 46 1012.5
20260505124314 13 246 0.0 0.0 0.00 0.00 0.00 45 1012.4
20260505123803 13 246 0.0 0.0 0.00 0.00 0.00 45 1012.7
20260505123312 13 246 0.0 0.0 0.00 0.00 0.00 45 1012.6
20260505122814 13 246 0.0 0.0 0.00 0.00 0.00 44 1012.6
20260505122302 13 246 0.0 0.0 0.00 0.00 0.00 43 1012.7
20260505121820 13 246 0.0 0.0 0.00 0.00 0.00 42 1012.8
20260505121311 13 246 0.0 0.0 0.00 0.00 0.00 42 1012.7
20260505120807 13 246 0.0 0.0 0.00 0.00 0.00 43 1012.8
20260505120342 13 246 0.0 0.0 0.00 0.00 0.00 42 1012.7
20260505115803 13 246 0.0 0.0 0.00 0.00 0.00 42 1012.5
20260505115337 13 246 0.0 0.0 0.00 0.00 0.00 42 1012.5
20260505114838 13 246 0.0 0.0 0.00 0.00 0.00 42 1012.5
20260505114321 13 246 0.0 0.0 0.00 0.00 0.00 42 1012.5
20260505113811 13 246 0.0 0.0 0.00 0.00 0.00 44 1012.2
20260505113335 13 246 0.0 0.0 0.00 0.00 0.00 41 1012.2
20260505112835 13 246 0.0 0.0 0.00 0.00 0.00 40 1012.3
20260505112318 13 246 0.0 0.0 0.00 0.00 0.00 40 1012.1
20260505111826 13 246 0.0 0.0 0.00 0.00 0.00 37 1012.0
20260505111324 13 246 0.0 0.0 0.00 0.00 0.00 37 1012.2
20260505110804 13 246 0.0 0.0 0.00 0.00 0.00 37 1012.3
20260505110346 13 246 0.0 0.0 0.00 0.00 0.00 37 1012.4
20260505101801 14 260 0.0 1.6 0.00 0.00 0.00 36 1012.8
20260505101333 14 261 0.0 0.0 0.00 0.00 0.00 37 1012.6
20260505100837 14 261 0.0 0.0 0.00 0.00 0.00 36 1012.4
20260505100318 14 261 0.0 0.0 0.00 0.00 0.00 36 1012.5
20260505095845 14 261 0.0 0.0 0.00 0.00 0.00 36 1012.2
20260505095308 13 261 0.0 0.0 0.00 0.00 0.00 37 1012.2
20260505094836 13 261 0.0 0.0 0.00 0.00 0.00 39 1012.3
20260505094341 13 261 0.0 0.0 0.00 0.00 0.00 40 1012.4
20260505093845 13 261 0.0 0.0 0.00 0.00 0.00 39 1012.1
20260505093338 13 261 0.0 0.0 0.00 0.00 0.00 37 1012.2
20260505092840 13 261 0.0 0.0 0.00 0.00 0.00 37 1012.2
20260505092312 14 261 0.0 0.0 0.00 0.00 0.00 37 1012.2
20260505091830 14 261 0.0 0.0 0.00 0.00 0.00 36 1012.3
20260505091304 14 261 0.0 0.0 0.00 0.00 0.00 35 1012.2
20260505090841 14 261 0.0 0.0 0.00 0.00 0.00 34 1012.4
20260505090304 15 261 0.0 0.0 0.00 0.00 0.00 34 1012.4
20260505085834 15 261 0.0 0.0 0.00 0.00 0.00 33 1012.6
20260505085328 15 261 0.0 0.0 0.00 0.00 0.00 33 1012.6
20260505084830 15 261 0.0 0.0 0.00 0.00 0.00 33 1012.6
20260505084305 15 261 0.0 0.0 0.00 0.00 0.00 33 1012.7
20260505083801 15 266 0.0 0.0 0.00 0.00 0.00 33 1013.1
20260505083329 15 266 0.0 0.0 0.00 0.00 0.00 32 1013.3
20260505082837 15 275 0.0 3.2 0.00 0.00 0.00 32 1013.5
20260505082305 15 267 0.0 4.8 0.00 0.00 0.00 32 1013.3
20260505081807 15 276 0.0 1.6 0.00 0.00 0.00 32 1013.3
20260505081344 15 250 0.0 0.0 0.00 0.00 0.00 31 1013.3
20260505080818 16 247 0.0 1.6 0.00 0.00 0.00 31 1013.3
20260505080330 16 256 0.0 3.2 0.00 0.00 0.00 31 1013.2
20260505075845 16 242 0.0 3.2 0.00 0.00 0.00 31 1013.1
20260505075337 16 266 1.6 8.0 0.00 0.00 0.00 31 1013.3
20260505074804 16 275 0.0 0.0 0.00 0.00 0.00 31 1013.2
20260505074344 16 256 3.2 12.9 0.00 0.00 0.00 31 1013.1
20260505073832 16 254 1.6 11.3 0.00 0.00 0.00 30 1012.9
20260505073346 16 239 4.8 19.3 0.00 0.00 0.00 30 1013.0
20260505072817 16 237 3.2 20.9 0.00 0.00 0.00 30 1013.0
20260505072307 16 234 9.7 25.7 0.00 0.00 0.00 30 1013.1
20260505071835 16 237 14.5 29.0 0.00 0.00 0.00 30 1013.0
20260505071318 16 236 9.7 25.7 0.00 0.00 0.00 29 1013.1
20260505070811 16 240 4.8 12.9 0.00 0.00 0.00 29 1013.2
20260505070303 16 234 4.8 14.5 0.00 0.00 0.00 29 1013.2
20260505065828 16 240 1.6 11.3 0.00 0.00 0.00 28 1012.8
20260505065312 17 244 0.0 1.6 0.00 0.00 0.00 28 1012.8
20260505064836 17 256 6.4 20.9 0.00 0.00 0.00 27 1012.7
20260505064301 17 235 1.6 9.7 0.00 0.00 0.00 27 1012.6
20260505063831 17 249 0.0 12.9 0.00 0.00 0.00 27 1012.6
20260505063327 17 232 1.6 8.0 0.00 0.00 0.00 27 1012.4
20260505062842 17 255 1.6 8.0 0.00 0.00 0.00 27 1012.3
20260505062322 17 227 1.6 6.4 0.00 0.00 0.00 26 1012.4
20260505061835 17 238 0.0 1.6 0.00 0.00 0.00 26 1012.9
20260505061325 17 234 3.2 17.7 0.00 0.00 0.00 26 1013.0
20260505060813 17 239 0.0 11.3 0.00 0.00 0.00 25 1013.0
20260505060302 17 240 3.2 6.4 0.00 0.00 0.00 25 1013.0
20260505055823 17 217 1.6 8.0 0.00 0.00 0.00 25 1012.7
20260505055323 17 234 3.2 11.3 0.00 0.00 0.00 25 1012.7
20260505054847 17 232 1.6 4.8 0.00 0.00 0.00 24 1012.6
20260505054302 18 245 1.6 11.3 0.00 0.00 0.00 24 1012.6
20260505053802 18 240 4.8 16.1 0.00 0.00 0.00 24 1012.5
20260505053305 18 243 4.8 11.3 0.00 0.00 0.00 24 1012.4
20260505052824 18 249 4.8 14.5 0.00 0.00 0.00 24 1012.4
20260505052341 18 230 4.8 12.9 0.00 0.00 0.00 24 1012.3
20260505051840 18 242 1.6 4.8 0.00 0.00 0.00 24 1012.3
20260505051338 18 247 0.0 4.8 0.00 0.00 0.00 23 1012.2
20260505050813 18 234 3.2 12.9 0.00 0.00 0.00 23 1012.2
20260505050340 18 253 1.6 6.4 0.00 0.00 0.00 23 1012.4
20260505041336 18 235 0.0 3.2 0.00 0.00 0.00 23 1012.2
20260505040820 18 244 0.0 0.0 0.00 0.00 0.00 23 1012.2
20260505040304 18 238 1.6 4.8 0.00 0.00 0.00 23 1012.2
20260505035826 19 268 0.0 3.2 0.00 0.00 0.00 23 1012.2
20260505035342 19 267 0.0 0.0 0.00 0.00 0.00 23 1012.2
20260505034823 19 253 0.0 1.6 0.00 0.00 0.00 23 1012.3
20260505034321 18 271 1.6 8.0 0.00 0.00 0.00 23 1012.2
20260505033816 19 274 0.0 0.0 0.00 0.00 0.00 23 1012.0
20260505033344 19 277 0.0 0.0 0.00 0.00 0.00 23 1011.9
20260505032846 19 278 0.0 0.0 0.00 0.00 0.00 22 1012.0
20260505032328 19 272 0.0 0.0 0.00 0.00 0.00 22 1011.9
20260505031824 19 258 0.0 3.2 0.00 0.00 0.00 22 1011.8
20260505031346 20 265 1.6 9.7 0.00 0.00 0.00 22 1011.7
20260505030839 20 251 0.0 1.6 0.00 0.00 0.00 21 1011.6
20260505030338 20 261 0.0 3.2 0.00 0.00 0.00 21 1011.5
20260505025830 20 258 6.4 22.5 0.00 0.00 0.00 20 1011.4
20260505025305 20 241 3.2 17.7 0.00 0.00 0.00 20 1011.4
20260505024832 20 262 1.6 4.8 0.00 0.00 0.00 20 1011.3
20260505024342 20 257 3.2 8.0 0.00 0.00 0.00 20 1011.3
20260505023908 20 257 0.0 0.0 0.00 0.00 0.00 20 1011.3
20260505023336 20 256 1.6 9.7 0.00 0.00 0.00 20 1011.2
20260505022826 20 264 1.6 12.9 0.00 0.00 0.00 19 1011.1
20260505022332 20 262 4.8 24.1 0.00 0.00 0.00 19 1011.1
20260505021839 20 256 3.2 6.4 0.00 0.00 0.00 19 1011.1
20260505021337 21 259 4.8 17.7 0.00 0.00 0.00 19 1011.0
20260505020817 21 261 3.2 20.9 0.00 0.00 0.00 19 1010.9
20260505020346 21 241 3.2 9.7 0.00 0.00 0.00 19 1010.8
20260505015824 21 261 1.6 16.1 0.00 0.00 0.00 19 1010.8
20260505015339 21 245 1.6 11.3 0.00 0.00 0.00 19 1010.7
20260505014815 21 248 1.6 6.4 0.00 0.00 0.00 20 1010.8
20260505014337 21 257 1.6 8.0 0.00 0.00 0.00 19 1010.7
20260505013816 21 251 1.6 8.0 0.00 0.00 0.00 19 1010.6
20260505013344 21 264 0.0 3.2 0.00 0.00 0.00 19 1010.5
20260505012819 21 239 0.0 3.2 0.00 0.00 0.00 19 1010.5
20260505012314 21 279 0.0 4.8 0.00 0.00 0.00 19 1010.4
20260505011801 21 248 1.6 8.0 0.00 0.00 0.00 18 1010.4
20260505011321 21 269 1.6 4.8 0.00 0.00 0.00 18 1010.4
20260505010826 21 256 3.2 14.5 0.00 0.00 0.00 18 1010.4
20260505010311 21 263 0.0 1.6 0.00 0.00 0.00 18 1010.4
20260505005801 21 261 1.6 12.9 0.00 0.00 0.00 17 1010.4
20260505005303 21 248 1.6 9.7 0.00 0.00 0.00 17 1010.4
20260505004833 21 271 1.6 16.1 0.00 0.00 0.00 17 1010.4
20260505004335 21 282 0.0 11.3 0.00 0.00 0.00 17 1010.4
20260505003818 21 270 1.6 6.4 0.00 0.00 0.00 17 1010.5
20260505003309 22 262 3.2 11.3 0.00 0.00 0.00 16 1010.4
20260505002821 22 267 0.0 8.0 0.00 0.00 0.00 16 1010.5
20260505002312 22 287 1.6 16.1 0.00 0.00 0.00 16 1010.5
20260505001821 22 267 3.2 11.3 0.00 0.00 0.00 16 1010.5
20260505001344 22 265 0.0 6.4 0.00 0.00 0.00 16 1010.8
20260505000835 22 264 4.8 12.9 0.00 0.00 0.00 15 1010.8
20260505000338 22 264 3.2 8.0 0.00 0.00 0.00 15 1010.6
20260504235827 22 261 3.2 11.3 0.00 0.00 0.00 14 1010.7
20260504235326 22 256 3.2 16.1 0.00 0.00 0.00 14 1010.7
20260504234837 22 292 0.0 6.4 0.00 0.00 0.00 14 1010.6
20260504234347 22 265 1.6 12.9 0.00 0.00 0.00 14 1010.7
20260504233839 22 257 3.2 22.5 0.00 0.00 0.00 14 1010.7
20260504233318 22 254 4.8 11.3 0.00 0.00 0.00 13 1010.7
20260504232808 22 245 6.4 19.3 0.00 0.00 0.00 13 1010.7
20260504232323 22 269 6.4 12.9 0.00 0.00 0.00 13 1010.7
20260504231823 22 270 3.2 14.5 0.00 0.00 0.00 13 1010.6
20260504231333 22 284 4.8 12.9 0.00 0.00 0.00 13 1010.6
20260504230826 22 249 9.7 22.5 0.00 0.00 0.00 13 1010.6
20260504230320 23 246 3.2 12.9 0.00 0.00 0.00 13 1010.7
20260504225835 23 246 11.3 29.0 0.00 0.00 0.00 13 1010.7
20260504225339 23 243 8.0 22.5 0.00 0.00 0.00 12 1010.7
20260504224818 23 238 6.4 17.7 0.00 0.00 0.00 12 1010.6
20260504224330 23 256 8.0 25.7 0.00 0.00 0.00 12 1010.7
20260504223840 23 246 8.0 25.7 0.00 0.00 0.00 12 1010.8
20260504223303 23 233 16.1 29.0 0.00 0.00 0.00 11 1011.0
20260504222817 23 238 9.7 24.1 0.00 0.00 0.00 11 1011.0
20260504222311 23 238 6.4 11.3 0.00 0.00 0.00 11 1010.9
20260504221836 23 260 14.5 20.9 0.00 0.00 0.00 10 1010.9
20260504221302 23 241 4.8 14.5 0.00 0.00 0.00 12 1011.1
20260504220844 23 233 4.8 14.5 0.00 0.00 0.00 12 1011.1
20260504220302 23 236 9.7 22.5 0.00 0.00 0.00 12 1011.3
20260504215805 23 232 8.0 14.5 0.00 0.00 0.00 16 1011.4
20260504215311 23 219 1.6 12.9 0.00 0.00 0.00 17 1011.4
20260504214833 23 227 3.2 9.7 0.00 0.00 0.00 17 1011.5